User: anonymous
Location: Caltech
(34.1382°N, 118.1253°W)
Time: 11:32:05
(UTC-07:00)
Language:

Cosmos 676 Rocket - Orbit

View from above orbital plane
View from above orbital plane
View from above satellite
View from above satellite

Ground track
Ground track

The orbit data is extracted from the following two-line orbital elements,

1 07434U 74071B   14243.73170744  .00000142  00000-0  57546-4 0  2928
2 07434 074.0469 287.6527 0019627 089.0860 050.7487 14.36273853 90184
Epoch (UTC): 31 August 2014 17:33:39
Eccentricity: 0.0019627
inclination: 74.0469°
perigee height: 757 km
apogee height: 785 km
right ascension of ascending node: 287.6527°
argument of perigee: 89.0860°
revolutions per day: 14.36273853
mean anomaly at epoch: 50.7487°
orbit number at epoch: 9018

The dashed part of the orbit path shows where the satellite is in the earth's shadow,  

DLR